Location: Walnut Street Observatory
(41.0583°N, 76.2295°W)
Time: 10:54:19
(UTC-04:00)

Daily predictions for brighter satellites

Satellite Brightness Start Highest point End
(mag) Time Altitude Azimuth Time Altitude Azimuth Time Altitude Azimuth
COSMOS 2428 2.9 20:08:43 10° S 20:14:15 52° ESE 20:19:48 10° NNE
NOSS 3-3 (A) 4.3 20:11:00 10° S 20:16:32 41° ESE 20:22:31 10° NE
CZ-2D R/B 3.2 20:12:49 10° SSE 20:16:34 65° ENE 20:20:22 10° N
NOSS 3-3 (C) 4.3 20:11:07 10° S 20:16:38 41° ESE 20:22:37 10° NE
Cosmos 2333 4.3 20:11:12 10° S 20:16:43 57° ESE 20:22:13 10° NNE
Cosmos 1844 Rocket 2.9 20:12:16 10° NNW 20:17:52 56° ENE 20:23:24 10° SE
Cosmos 2263 Rocket 4.2 20:15:06 10° NW 20:19:58 30° WSW 20:24:49 10° SSW
Cosmos 2221 3.0 20:16:38 10° SSW 20:20:53 66° W 20:25:08 10° N
Cosmos 1844 4.1 20:15:42 10° NNW 20:21:11 47° ENE 20:26:41 10° SE
Cosmos 1455 3.4 20:19:26 10° SE 20:22:31 24° E 20:25:39 10° NE
Cosmos 44 4.2 20:20:39 10° SW 20:24:58 50° NW 20:29:36 10° NNE
ERS-2 2.2 20:21:56 10° SSE 20:25:32 60° ENE 20:29:10 10° N
Cosmos 494 Rocket 4.2 20:21:04 10° NNW 20:26:17 76° WSW 20:31:29 10° SSE
Cosmos 2219 Rocket 2.5 20:22:34 10° S 20:27:56 46° ESE 20:33:20 10° NE
Cosmos 2237 Rocket 3.3 20:24:24 10° SSE 20:28:37 22° E 20:32:52 10° NE
Cosmos 1892 3.2 20:25:27 10° N 20:29:09 40° ENE 20:32:48 10° SSE
H-2A R/B 4.0 20:28:45 10° ENE 20:30:11 11° ENE 20:31:36 10° NE
Cosmos 2154 Rocket 4.1 20:24:51 10° S 20:31:00 61° E 20:37:07 10° NNE
Cosmos 2184 Rocket 4.3 20:28:26 10° SSW 20:34:34 72° W 20:40:45 10° N
Cosmos 1805 Rocket 3.6 20:30:15 10° N 20:34:37 86° W 20:38:57 10° S
Cosmos 2278 Rocket 3.3 20:32:32 10° N 20:37:25 29° NE 20:41:43 12° ESE
Cosmos 1328 Rocket 4.1 20:36:36 10° SSE 20:40:40 38° E 20:44:48 10° NNE
YAOGAN 6 2.6 20:39:02 10° SSE 20:42:34 66° ENE 20:46:12 10° N
Genesis I 4.4 20:39:01 10° NNW 20:42:41 31° NE 20:45:30 15° ESE
Resurs 01 Rocket 1.8 20:39:27 10° SSE 20:43:47 57° ENE 20:48:09 10° N
Cosmos 2251 Rocket 3.6 20:38:39 10° NNW 20:44:04 86° ENE 20:49:26 10° SSE
Meteor 2-15 4.5 20:38:49 10° N 20:45:00 87° E 20:51:06 10° S
Cosmos 44 Rocket 4.4 20:43:24 10° SW 20:47:59 47° NW 20:52:44 10° NNE
Envisat 3.5 20:43:03 10° S 20:48:04 63° W 20:53:08 10° NNW
Cosmos 1470 Rocket 4.2 20:48:20 10° N 20:52:25 36° ENE 20:55:28 16° SE
Cosmos 2341 Rocket 4.1 20:46:30 10° S 20:52:45 61° E 20:58:58 10° NNE
ATLAS CENTAUR R/B 1.2 20:51:40 10° SSW 20:55:12 50° ESE 20:58:53 10° NE
Cosmos 1340 3.5 20:53:23 10° SSW 20:57:06 54° WNW 21:00:51 10° N
Cosmos 962 Rocket 4.4 20:51:55 10° S 20:57:58 70° E 21:04:06 10° NNE
Timation 1 Rocket 4.4 20:54:22 10° NNW 21:00:22 82° WSW 21:06:16 10° SSE
Cosmos 2098 Rocket 4.3 20:58:55 19° ESE 21:00:36 23° E 21:03:50 10° NE
Aureole 2 4.2 21:01:44 10° S 21:04:44 50° ESE 21:07:36 10° NNE
NOSS 0 Rocket 3.9 21:00:59 10° S 21:07:01 61° ESE 21:13:08 10° NNE
Cosmos 1295 Rocket 4.5 21:01:20 10° S 21:07:39 77° E 21:13:58 10° N
Cosmos 1825 2.9 21:06:59 10° N 21:10:30 35° ENE 21:11:38 28° ESE
SL-24 R/B - RUBIN 2 4.4 21:07:28 10° NW 21:11:39 46° WSW 21:15:15 13° S
Cosmos 2366 rocket 4.4 21:06:59 12° SSE 21:12:13 42° E 21:18:02 10° NNE
Thor Agena Rocket 4.4 21:08:07 10° N 21:13:14 55° WNW 21:18:22 10° SSW
Cosmos 1666 Rocket 4.5 21:10:45 10° NNW 21:15:05 50° W 21:19:23 10° SSW
SJ-11-01 4.4 21:13:16 10° S 21:17:51 75° WSW 21:22:32 10° NNW
SL-16 R/B 3.2 21:17:50 23° ESE 21:17:59 23° E 21:22:19 10° NE
Cosmos 1939 Rocket 3.8 21:15:22 10° S 21:19:04 45° W 21:22:49 10° NNW
Resurs 1-3 4.2 21:15:25 10° S 21:19:42 55° W 21:24:02 10° NNW
USA 186 3.7 21:18:34 10° SW 21:20:11 18° W 21:21:50 10° NW
Cosmos 1933 Rocket 3.5 21:16:50 10° N 21:21:12 63° E 21:23:24 28° SSE
Meteor 2-3 Rocket 3.8 21:16:10 10° NNW 21:21:47 78° W 21:27:23 10° S
SL-8 Rocket 4.0 21:15:36 10° S 21:21:50 67° E 21:28:04 10° NNE
GEOS 3 Rocket 4.2 21:21:36 10° NE 21:26:24 34° ESE 21:31:07 10° S
Cosmos 220 Rocket 4.1 21:23:10 10° NNW 21:27:31 73° WSW 21:29:55 25° S
ARGOS 3.4 21:25:39 28° SE 21:28:07 49° ENE 21:33:16 10° N
Cosmos 1869 3.5 21:27:19 37° SE 21:28:28 49° E 21:32:21 10° NNE
Cosmos 1151 Rocket 2.9 21:24:45 10° S 21:29:00 88° E 21:33:17 10° N
ATLAS 2AS CENTAUR R/B 2.9 21:22:34 10° NW 21:30:31 85° WSW 21:35:15 25° SSE
Spot 2 Rocket 3.9 21:26:22 12° S 21:31:02 64° WSW 21:36:06 10° NNW
MetOp-B 4.5 21:30:49 31° SE 21:32:57 48° ENE 21:38:05 10° N
Lacrosse 5 4.3 21:35:32 10° NNW 21:38:07 14° N 21:40:42 10° NE
BREEZE-M DEB (TANK) 4.4 21:32:44 10° WNW 21:38:39 27° NNW 21:41:04 11° NE
SPOT 5 4.0 21:40:06 25° ENE 21:40:19 25° ENE 21:44:00 10° NNE
Cosmos 1869 Rocket 4.4 21:39:21 10° NNE 21:43:13 33° ENE 21:43:13 33° ENE
Cosmos 1980 3.8 21:38:51 10° SSW 21:44:31 79° WNW 21:50:15 10° NNE
OAO 2 Rocket 4.5 21:44:19 10° WSW 21:48:40 27° SSW 21:49:18 27° S
Cosmos 2297 4.3 21:43:25 10° N 21:48:46 41° ENE 21:50:10 35° E
Meteor 2-10 Rocket 3.7 21:46:07 29° S 21:49:06 66° E 21:54:53 10° NNE
Cosmos 2333 Rocket 3.4 21:47:52 10° SW 21:53:14 43° WNW 21:58:36 10° NNE
Cosmos 864 Rocket 4.3 21:49:04 18° S 21:53:48 85° E 21:59:59 10° N
Cosmos 2369 Rocket 4.4 21:54:39 10° NNE 21:56:48 12° NE 21:58:28 11° ENE
Cosmos 2228 Rocket 4.3 21:53:57 10° SSW 21:58:06 41° WNW 22:02:17 10° N
Helios 1A 3.5 21:59:12 43° ENE 21:59:12 43° ENE 22:02:55 10° N
SPOT 1/Viking Rocket 4.1 22:00:11 39° E 22:00:38 40° ENE 22:05:30 10° N
Cosmos 1408 3.7 21:57:18 10° NNW 22:00:46 41° W 22:01:43 33° SW
NOSS 3-4 (A) 4.1 21:53:54 10° NNW 22:00:49 57° NE 22:03:34 38° ESE
NOSS 3-4 (C) 4.1 21:54:01 10° NNW 22:00:55 56° NE 22:03:40 38° ESE
USA 81 4.0 21:56:25 10° N 22:01:42 67° E 22:02:39 55° SE
H-2A R/B 1.9 22:07:50 58° SSE 22:08:52 89° ENE 22:13:53 10° NNW
Cosmos 407 Rocket 3.3 22:05:30 10° NNW 22:10:38 72° ENE 22:11:08 67° ESE
SL-8 R/B 3.8 22:05:54 10° WSW 22:10:41 72° NNW 22:12:51 32° NE
ERS-1 Rocket 2.8 22:10:13 64° SSE 22:11:01 85° ENE 22:16:04 10° NNW
Cosmos 2219 Rocket 4.3 22:07:20 10° WSW 22:12:05 27° NW 22:16:51 10° N
USA 267 3.2 22:05:46 10° NE 22:12:13 58° SE 22:18:37 10° SSW
Cosmos 2237 Rocket 3.0 22:06:49 10° SW 22:12:16 50° WNW 22:17:46 10° NNE
MetOp-A 4.4 22:12:26 40° SSW 22:14:15 64° WSW 22:19:35 10° NNW
Cosmos 1862 3.8 22:10:48 10° N 22:14:04 54° NNE 22:14:04 54° NNE
Cosmos 1371 Rocket 4.5 22:12:34 10° SSW 22:17:48 61° WNW 22:23:07 10° NNE
Resurs 01 Rocket 4.4 22:18:30 10° WSW 22:20:36 13° W 22:22:43 10° WNW
Cosmos 2278 Rocket 3.1 22:16:18 10° NW 22:21:38 43° WSW 22:23:35 32° SSW
SL-08 RB Rocket 4.0 22:24:46 58° WSW 22:25:01 59° W 22:29:27 10° NNW
Cosmos 405 Rocket 4.0 22:28:05 36° N 22:28:05 36° N 22:30:30 10° N
Cosmos 1000 Rocket 4.4 22:22:49 10° N 22:28:59 62° E 22:29:25 61° E
ATLAS 5 CENTAUR R/B 4.2 22:25:00 10° N 22:29:05 19° NE 22:31:07 16° ENE
Cosmos 1727 Rocket 4.2 22:23:23 10° NNW 22:29:29 64° W 22:31:34 41° SSW
Cosmos 676 Rocket 4.0 22:24:18 10° NNW 22:29:20 65° NE 22:29:20 65° NE
Cosmos 1821 Rocket 4.0 22:33:03 63° ESE 22:33:16 63° E 22:39:31 10° NNE
ATLAS CENTAUR R/B 4.2 22:32:10 10° W 22:34:29 16° NW 22:36:53 10° N
Cosmos 2056 Rocket 4.3 22:35:44 19° SW 22:39:28 50° WNW 22:44:44 10° N
Cosmos 1452 Rocket 4.2 22:42:01 43° NE 22:42:01 43° NE 22:45:36 10° NNE
USA 234 4.3 22:43:06 28° ENE 22:45:38 38° NNE 22:51:33 10° NW
Landsat 7 4.2 22:46:49 58° N 22:46:49 58° N 22:50:40 10° NNW
Cosmos 2123 Rocket 4.3 22:44:14 10° N 22:49:58 52° ENE 22:49:58 52° ENE
SL-16 R/B 2.9 22:59:34 33° WSW 23:01:42 49° WNW 23:07:12 10° NNE
Cosmos 2344 3.4 22:58:40 38° SSW 23:02:03 88° ESE 23:10:23 10° NE
Terra 2.7 23:05:06 45° N 23:05:06 45° N 23:08:24 10° NNW
Cosmos 1535 Rocket 4.4 23:04:34 85° N 23:04:34 85° N 23:10:47 10° N
Cosmos 1140 Rocket 4.1 23:02:39 10° NNW 23:06:46 53° NW 23:06:46 53° NW
CZ-4C R/B 3.7 23:13:19 27° NE 23:13:19 27° NE 23:16:00 10° NE
CZ-2C R/B 4.1 23:14:25 36° N 23:14:25 36° N 23:17:19 10° N
Cosmos 1943 Rocket 3.6 23:09:25 10° N 23:13:21 28° NE 23:13:21 28° NE
SPOT 5 4.4 23:19:20 28° WNW 23:19:20 28° WNW 23:22:20 10° NW
Helios 1B rocket 4.5 23:17:17 10° N 23:19:45 26° NW 23:19:45 26° NW
Lacrosse 5 3.4 23:18:06 10° NNW 23:21:58 29° NNE 23:21:58 29° NNE
Cosmos 1605 Rocket 4.3 23:24:41 59° NNE 23:24:41 59° NNE 23:29:51 10° N
Cosmos 2369 Rocket 3.1 23:36:15 10° NNW 23:40:15 45° N 23:40:15 45° N
